Regional Weather Roundup
Issued by NWS Little Rock, AR

Home | Current Version | Previous Version | Graphics & Text | Print | Product List | Glossary On
Versions: 1 2 3 4 5 6 7 8 9 10 11 12 13 14 15 16 17 18 19 20 21 22 23 24 25 26 27 28 29 30 31 32 33 34 35 36 37 38 39 40 41 42 43 44 45 46 47 48 49 50
998
ASUS44 KLZK 021705
RWRLZK

WEATHER ROUNDUP FOR ARKANSAS
NATIONAL WEATHER SERVICE LITTLE ROCK AR
1100 AM CST FRI DEC 02 2016

NOTE: "FAIR" INDICATES FEW OR NO CLOUDS BELOW 12,000 FEET WITH NO
SIGNIFICANT WEATHER AND/OR OBSTRUCTIONS TO VISIBILITY.

ARZ001-003-010-029-021800-
NORTHWEST ARKANSAS

CITY           SKY/WX    TMP DP  RH WIND       PRES   REMARKS
FAYETTEVILLE   MOSUNNY   53  31  42 CALM      30.23S
FORT SMITH     MOSUNNY   54  34  46 NE6       30.24R
HARRISON       SUNNY     50  31  48 VRB3      30.24S
BENTONVILLE    MOSUNNY   55  28  35 CALM      30.24S
ROGERS         PTSUNNY   53  32  44 E3        30.24R
SILOAM SPGS    MOSUNNY   54  30  40 E3        30.23R
HIGHFILL       PTSUNNY   53  32  44 VRB5      30.23R
SPRINGDALE     PTSUNNY   52  30  43 NE6       30.25R
$$

ARZ004-005-016-021800-
NORTH CENTRAL ARKANSAS

CITY           SKY/WX    TMP DP  RH WIND       PRES   REMARKS
BATESVILLE     SUNNY     54  32  43 CALM      30.28F
FLIPPIN        SUNNY     46  28  49 E5        30.24F
MTN HOME       SUNNY     50  32  50 CALM      30.25S
$$

ARZ040-041-021800-
WEST CENTRAL ARKANSAS

CITY           SKY/WX    TMP DP  RH WIND       PRES   REMARKS
MENA           SUNNY     59  34  38 CALM      30.25S
MOUNT IDA      SUNNY     56  35  45 CALM      30.23R
$$

ARZ009-017-025-026-028-021800-
NORTHEAST ARKANSAS

CITY           SKY/WX    TMP DP  RH WIND       PRES   REMARKS
JONESBORO      SUNNY     49  36  61 NE7       30.28S
WALNUT RIDGE   SUNNY     48  34  57 NE7       30.29S
BLYTHEVILLE    SUNNY     54  37  52 E3        30.29F
NW BLYTHEVILLE SUNNY     50  34  53 NE5       30.29S
$$

ARZ022-023-033-042-044-021800-
CENTRAL ARKANSAS

CITY           SKY/WX    TMP DP  RH WIND       PRES   REMARKS
LITTLE ROCK    CLOUDY    57  32  38 SW6       30.28S
N LITTLE ROCK    N/A     57  32  38 S6        30.28S
JACKSONVILLE   SUNNY     57  33  41 VRB3      30.26S
SEARCY         SUNNY     57  34  41 SW7       30.28F
HOT SPRINGS    MOSUNNY   55  36  48 VRB5      30.27R
RUSSELLVILLE   SUNNY     54  33  45 S5        30.25S
$$

ARZ036-021800-
EAST ARKANSAS

CITY           SKY/WX    TMP DP  RH WIND       PRES   REMARKS
WEST MEMPHIS   SUNNY     56  32  40 VRB3      30.27F
$$

ARZ050-053-066-070-073-021800-
SOUTHWEST ARKANSAS

CITY           SKY/WX    TMP DP  RH WIND       PRES   REMARKS
ARKADELPHIA    FAIR      50  36  58 CALM      30.29R
CAMDEN         SUNNY     59  32  36 S3        30.27F
TEXARKANA      MOSUNNY   59  32  36 SE7       30.25S
EL DORADO      SUNNY     58  34  40 SE9       30.27S
DE QUEEN       CLOUDY    54  35  48 CALM      30.24S
$$

ARZ056-057-069-021800-
SOUTHEAST ARKANSAS

CITY           SKY/WX    TMP DP  RH WIND       PRES   REMARKS
PINE BLUFF     SUNNY     57  36  45 SE5       30.28S
STUTTGART      SUNNY     55  36  47 S6        30.29S
MONTICELLO     SUNNY     59  31  34 SE6       30.28R

$$






USA.gov is the U.S. government's official web portal to all federal, state and local government web resources and services.